Flag for China Weather past 2 weeks in Taiyuan, Shanxi, China

Now
59 °F

Clear.


Feels Like: 60 °F
Forecast: 49 / 83 °F
Wind: 3 mph from Southeast

Location: Taiyuan Airport

Current Time: May 23, 2015 at 2:11:01 AM

Latest Report: May 23, 2015 at 1:30 AM


Visibility: 4 mi

Pressure: 29.89 "Hg

Humidity: 55%

Dew point: 43 °F

Location of TaiyuanLocation

Historic Weather in Taiyuan — Graph

°F

Taiyuan temperature yesterday

Maximum temperature yesterday: 84 °F (at 4:00 PM)
Minimum temperature yesterday: 50 °F (at 4:30 AM)
Average temperature yesterday: 67 °F

Past Weeks' High & Low Weather Summary

 TemperatureHumidityPressure
High90 °F (May 17, 3:30 PM)94% (May 10, 3:00 PM)30.15 "Hg (May 10, 3:00 PM)
Low41 °F (May 12, 3:00 AM)7% (May 19, 6:00 PM)29.47 "Hg (May 17, 3:30 PM)
Average64 °F39%29.85 "Hg
* Reported Midnight between May 7 and May 8 — May 23 12:30 AM, Taiyuan, Weather by CustomWeather, © 2015

Note: Actual official high and low records may vary slightly from our data, if they occured in-between our weather recording intervals... More about our weather records

Advertising

Taiyuan weather history for previous 24 hours

 ConditionsComfort  
Time TempWeatherWind HumidityBarometerVisibility
12:30 AM
Sat, May 23
63 °FClear.3 mph37%29.89 "Hg10 mi
12:00 AM63 °FClear.3 mph37%29.89 "Hg10 mi
11:30 PM
Fri, May 22
64 °FClear.3 mph37%29.89 "Hg10 mi
11:00 PM64 °FClear.6 mph40%29.89 "Hg10 mi
10:30 PM66 °FClear.6 mph35%29.86 "Hg10 mi
10:00 PM70 °FClear.6 mph29%29.86 "Hg10 mi
9:30 PM70 °FPassing clouds.3 mph27%29.86 "HgN/A
9:00 PM73 °FClear.1 mph20%29.86 "Hg10 mi
8:30 PM75 °FPassing clouds.6 mph16%29.83 "HgN/A
8:00 PM75 °FPassing clouds.3 mph15%29.83 "HgN/A
7:30 PM77 °FSunny.3 mph15%29.80 "Hg10 mi
7:00 PM79 °FSunny.3 mph16%29.80 "Hg10 mi
6:30 PM81 °FPassing clouds.8 mph14%29.80 "HgN/A
6:00 PM81 °FPassing clouds.8 mph14%29.80 "HgN/A
5:30 PM82 °FPassing clouds.8 mph11%29.80 "HgN/A
5:00 PM81 °FPassing clouds.6 mph13%29.80 "HgN/A
4:30 PM82 °FPassing clouds.8 mph13%29.80 "HgN/A
4:00 PM84 °FPassing clouds.6 mph9%29.80 "HgN/A
3:30 PM82 °FPassing clouds.6 mph8%29.83 "HgN/A
3:00 PM82 °FPassing clouds.8 mph11%29.83 "HgN/A
2:30 PM82 °FPassing clouds.6 mph10%29.86 "HgN/A
2:00 PM82 °FPassing clouds.8 mph14%29.86 "HgN/A
1:30 PM81 °FPassing clouds.3 mph18%29.89 "HgN/A
1:00 PM79 °FPassing clouds.3 mph23%29.89 "HgN/A
12:30 PM77 °FPassing clouds.1 mph28%29.92 "HgN/A
12:00 PM73 °FPassing clouds.1 mph31%29.92 "HgN/A
11:30 AM72 °FClear.3 mph33%29.95 "Hg5 mi
11:00 AM70 °FClear.6 mph38%29.95 "Hg4 mi
10:30 AM68 °FClear.3 mph43%29.98 "Hg4 mi
10:00 AM66 °FHaze.3 mph46%29.98 "Hg3 mi
9:30 AM63 °FHaze.3 mph56%29.98 "Hg3 mi
9:00 AM63 °FHaze.3 mph56%29.98 "Hg3 mi
8:30 AM61 °FHaze.3 mph59%30.01 "Hg3 mi
8:00 AM59 °FHaze.3 mph68%30.01 "Hg2 mi
7:30 AM57 °FHaze.1 mph72%30.01 "Hg2 mi
7:00 AM55 °FFog.1 mph77%30.01 "Hg2 mi
6:30 AM52 °FFog.1 mph82%30.01 "Hg2 mi
6:00 AM50 °FFog.1 mph88%29.98 "Hg2 mi
5:30 AM52 °FFog.1 mph82%29.98 "Hg2 mi
5:00 AM50 °FFog.3 mph82%29.98 "Hg2 mi
4:30 AM50 °FFog.1 mph82%29.98 "Hg2 mi
4:00 AM52 °FFog.1 mph77%29.98 "Hg2 mi
3:30 AM52 °FFog.3 mph77%29.98 "Hg2 mi
3:00 AM52 °FClear.1 mph82%29.98 "Hg4 mi
2:30 AM52 °FClear.1 mph77%30.01 "Hg4 mi
2:00 AM52 °FClear.1 mph77%30.01 "Hg4 mi
Weather by CustomWeather, © 2015

See weather overviewHow to use our weather pages